sat.trackr.live / text

‹ back to catalog

STARLINK-34165

NORAD 63997 · 2025-101D

PAYLOAD ACTIVE UNKNOWN

§ Identity

Operator
Country
US
Launch date
2025-05-14
Launch site
AFETR
Launch vehicle
Mass (kg)
RCS (m²)

Purposes: comms

External: N2YO · Heavens-Above · Gunter

§ Orbital elements

Epoch: 2026-09-20T21:35:47.135040Z

Period
94.27 min
Inclination
43.0001°
Eccentricity
0.0001656
Mean motion
15.27582623 rev/d
Perigee alt
481.9 km
Apogee alt
484.2 km
Semi-major
6,861.2 km
B*
3.2721e-4
RAAN
335.2156°
Arg perigee
276.6960°
Mean anomaly
83.3704°
Rev number
7,691

§ Raw data

STARLINK-341651 63997U 25101D   26263.89985110  .00008753  00000+0  32721-3 0  99932 63997  43.0001 335.2156 0001656 276.6960  83.3704 15.27582623 76912

JSON: /api/v1/satellites/63997 · /tle

For live sub-satellite position, see the globe view (requires WebGL).

§ Visibility from observer

Set your observer location to see the next 7 days of passes ≥ 10°. The values pass through the URL so the page stays shareable.

No JS? Fill the form by hand. The geolocation button needs JavaScript.